[[{"header":{"parameterUnit":"m.s-1","parameterCategory":1,"la1":30.2991,"la2":30.254,"lo1":-89.0895,"lo2":-89.0444,"dy":0.0017,"dx":0.0017,"nx":28,"ny":28,"refTime":"2025-07-07T09:00:00:Z","depth":0,"parameterNumber":2,"parameterNumberName":"U-component_of_WINDS"},"data":[0,0,0,0,0,0,0,0,0,0,0,0,0,0,0,0,0,0,0,0,0,0,0,0,0,0,0,0,0,0,0,0,0,0,0,0,0,0,0,0,0,0,0,0,0,0,0,0,0,0,0,0,0,0,0,0,0,0,2.9811,2.9812,0,2.9922,2.9923,2.9925,2.9953,2.9953,2.9952,2.9951,3.0067,3.0071,3.0074,0,0,0,0,0,0,0,0,0,0,0,0,0,2.9624,2.9627,2.9811,2.9812,2.9813,2.9922,2.9923,2.9925,2.9954,2.9953,2.9952,2.9951,3.0066,3.007,3.0075,0,0,0,0,0,0,0,0,0,0,0,0,0,2.9717,2.9628,2.981,2.9841,2.9845,2.9922,2.9923,2.9925,2.9954,2.9953,2.9952,2.9951,3.0064,3.007,3.0075,3.013,0,0,3.0092,3.0095,0,0,0,0,0,0,0,0,2.9712,2.9724,2.9835,2.9839,2.9843,2.9923,2.99,2.9994,2.9954,2.9912,2.9951,2.995,3.002,3.0029,3.0052,3.0136,3.0141,3.0093,3.0096,3.0099,3.01,0,0,0,0,0,0,0,2.9705,2.9719,2.9855,2.9836,2.9842,2.9849,2.9861,2.9918,2.9971,2.9916,2.9918,2.9931,3.0022,3.0047,3.0055,3.0143,3.0093,3.0098,3.0101,3.0103,3.0277,3.0278,0,0,0,0,0,0,2.9693,2.9714,2.9851,2.9858,2.9774,2.9853,2.9867,2.9898,2.997,2.998,2.9932,2.9932,3.0038,3.0049,3.0059,3.0128,3.0099,3.0104,3.0107,3.0276,3.0277,3.0279,0,0,0,0,0,0,2.9689,2.9705,2.9847,2.9787,2.9805,2.9858,2.9893,2.9901,2.9926,2.9982,2.9992,2.9947,3.0037,3.0052,3.0112,3.0133,3.0106,3.0111,3.0274,3.0276,3.0278,3.0267,0,0,0,0,0,0,2.9684,2.9704,2.9725,2.9787,2.9808,2.9897,2.9894,2.9904,2.9935,2.9936,2.9999,3.0009,3.0038,3.0104,3.0118,3.014,3.0116,3.0273,3.0275,3.0277,3.0266,3.0268,3.027,0,0,0,0,0,2.9677,2.9718,2.9726,2.9742,2.9836,2.9898,2.9911,2.9943,2.9937,2.9959,2.9995,3.0007,3.0128,3.011,3.0126,3.015,3.0271,3.0274,3.0277,3.0265,3.0268,3.027,0,0,0,0,0,0,2.9657,2.9726,2.9736,2.9798,2.9842,2.9903,2.9932,2.9945,2.9992,2.9991,3.003,3.0044,3.0102,3.0132,3.0111,3.0207,3.02,3.0206,3.0185,3.0188,3.0191,3.0182,3.012,0,0,0,0,0,2.966,2.9705,2.9763,2.9812,2.9834,2.9879,2.9907,2.9928,2.9976,2.9995,3.0035,3.0081,3.013,3.0161,3.0209,3.027,3.0284,3.0295,3.0297,3.0299,3.0304,3.0338,3.0343,3.0288,3.0288,3.0288,0,0,2.9666,2.971,2.9736,2.9809,2.9846,2.9891,2.9894,2.9943,2.9977,3.0002,3.0062,3.0093,3.0147,3.0208,3.0237,3.0235,3.0322,3.0303,3.0303,3.0307,3.0342,3.0347,3.0351,3.029,3.0289,3.0289,0,0,2.9701,2.9738,2.9783,2.982,2.9875,2.9905,2.9915,2.9975,2.9996,3.0057,3.0076,3.0118,3.0201,3.0239,3.0268,3.0317,3.033,3.0332,3.0344,3.0377,3.0381,3.0386,3.0402,3.0408,3.0337,3.0337,3.0337,0,2.9702,2.9771,2.9805,2.9852,2.9883,2.9908,2.9954,2.9988,3.0056,3.0077,3.0074,3.0179,3.0217,3.0287,3.0299,3.0322,3.0336,3.0325,3.0378,3.0383,3.0387,3.0403,3.041,3.0336,3.0336,3.0337,3.0337,0,2.9769,2.9817,2.9847,2.9911,2.9946,2.9993,3.0033,3.0065,3.0083,3.0113,3.0174,3.0221,3.0278,3.0297,3.0315,3.037,3.0367,3.037,3.0364,3.0391,3.0407,3.0414,3.0336,3.0336,3.0336,3.0336,0,0,2.9794,2.9876,2.9887,2.9916,2.9979,3.0017,3.0064,3.012,3.0146,3.0193,3.0233,3.0303,3.0307,3.0341,3.0364,3.0393,3.0428,3.0393,3.0395,3.0397,3.049,3.0487,3.0493,3.0437,3.0438,3.0439,3.0486,0,2.9836,2.9921,2.9952,3.0022,3.0067,3.0091,3.0132,3.0175,3.0205,3.0247,3.0281,3.0329,3.033,3.0351,3.0381,3.0417,3.0447,3.0414,3.0475,3.0477,3.046,3.0502,3.0498,3.054,3.0492,3.0493,3.0494,0,2.9896,2.9942,3.0016,3.0073,3.0093,3.013,3.0183,3.0224,3.0273,3.0293,3.033,3.0351,3.0402,3.0393,3.0464,3.0441,3.0468,3.0489,3.0492,3.0498,3.0486,3.0509,3.0554,3.0559,3.0505,3.0504,3.0503,0,2.9906,2.9987,3.0042,3.0066,3.0134,3.0159,3.0189,3.0238,3.0269,3.0316,3.0337,3.039,3.0418,3.0459,3.0493,3.0484,3.0561,3.0555,3.0578,3.0578,3.0593,3.0591,3.0642,3.0612,3.0611,3.0611,3.0611,0,2.9949,2.9993,3.0047,3.008,3.0131,3.0167,3.0216,3.0247,3.029,3.033,3.0355,3.0392,3.0436,3.0479,3.0507,3.0561,3.0574,3.0591,3.0598,3.0589,3.0586,3.0606,3.0604,3.0613,3.0613,3.0612,3.0612,0,2.9968,3.0006,3.0067,3.0126,3.0142,3.0177,3.0228,3.0261,3.0292,3.0343,3.0357,3.0405,3.0457,3.0496,3.0564,3.0582,3.064,3.0647,3.0623,3.0626,3.0647,3.0644,3.0712,3.0722,3.0685,3.0686,3.0686,0,2.9992,3.0027,3.009,3.0118,3.0148,3.0193,3.0225,3.0263,3.0295,3.0354,3.0381,3.0434,3.0479,3.0561,3.0603,3.0655,3.0663,3.0683,3.0671,3.066,3.0662,3.066,3.0663,3.0684,3.0685,3.0685,3.0685,0,3.0032,3.0049,3.0094,3.0145,3.0183,3.0226,3.0269,3.0291,3.0336,3.0371,3.0424,3.0459,3.0527,3.058,3.0636,3.0667,3.0684,3.0688,3.0697,3.0687,3.0671,3.0679,3.0626,3.0687,3.0686,3.0686,3.0686,3.0686,3.0054,3.0086,3.0135,3.0184,3.022,3.026,3.0294,3.0329,3.0374,3.0432,3.0452,3.0507,3.0556,3.0632,3.0664,3.0708,3.0708,3.072,3.0723,3.0725,3.0724,3.0665,3.0718,3.0718,3.0718,3.0718,3.0718,0,3.0094,3.0127,3.0172,3.0231,3.027,3.0282,3.033,3.0362,3.0409,3.0453,3.0497,3.0558,3.0609,3.0655,3.0708,3.0734,3.0743,3.0747,3.0745,3.0752,3.0721,3.0708,3.0739,3.0739,3.0739,3.0739,3.0739,3.0739,3.012,3.0173,3.0196,3.0268,3.0301,3.0354,3.0381,3.0418,3.0453,3.052,3.0562,3.0591,3.0636,3.0693,3.0741,3.0753,3.0771,3.0773,3.0787,3.0757,3.0754,3.0752,3.074,3.0777,3.0777,3.0815,3.0815,3.0815]},{"header":{"parameterUnit":"m.s-1","parameterCategory":1,"la1":30.2991,"la2":30.254,"lo1":-89.0895,"lo2":-89.0444,"dy":0.0017,"dx":0.0017,"nx":28,"ny":28,"refTime":"2025-07-07T09:00:00:Z","depth":0,"parameterNumber":3,"parameterNumberName":"V-component_of_WINDS"},"data":[0,0,0,0,0,0,0,0,0,0,0,0,0,0,0,0,0,0,0,0,0,0,0,0,0,0,0,0,0,0,0,0,0,0,0,0,0,0,0,0,0,0,0,0,0,0,0,0,0,0,0,0,0,0,0,0,0,0,2.2692,2.2692,0,2.2708,2.2709,2.2709,2.2684,2.2683,2.2683,2.2682,2.2698,2.2699,2.27,0,0,0,0,0,0,0,0,0,0,0,0,0,2.264,2.2641,2.2692,2.2692,2.2693,2.2708,2.2709,2.2709,2.2684,2.2683,2.2682,2.2681,2.2698,2.2699,2.27,0,0,0,0,0,0,0,0,0,0,0,0,0,2.266,2.2641,2.2692,2.2682,2.2682,2.2708,2.2709,2.2709,2.2685,2.2683,2.2682,2.2681,2.2697,2.2699,2.2701,2.2738,0,0,2.2706,2.2707,0,0,0,0,0,0,0,0,2.2659,2.2662,2.2684,2.2683,2.2682,2.2693,2.2696,2.2719,2.2685,2.2684,2.2682,2.268,2.2697,2.2699,2.2705,2.2738,2.2739,2.2706,2.2708,2.2708,2.2709,0,0,0,0,0,0,0,2.2657,2.2661,2.2699,2.2684,2.2683,2.2677,2.2678,2.27,2.2697,2.2684,2.2682,2.2684,2.2697,2.2703,2.2705,2.2739,2.2706,2.2708,2.2709,2.271,2.2804,2.2805,0,0,0,0,0,0,2.2657,2.266,2.2698,2.2699,2.2667,2.2679,2.2681,2.2691,2.2697,2.2697,2.2685,2.2683,2.2701,2.2703,2.2706,2.2749,2.2708,2.271,2.2711,2.2802,2.2804,2.2806,0,0,0,0,0,0,2.2656,2.2661,2.2697,2.2679,2.2683,2.2681,2.2693,2.2692,2.2698,2.2698,2.2698,2.2692,2.27,2.2703,2.273,2.2749,2.2711,2.2713,2.2801,2.2803,2.2805,2.2837,0,0,0,0,0,0,2.2655,2.2661,2.2675,2.268,2.2684,2.2722,2.2694,2.2693,2.2702,2.2699,2.2705,2.2705,2.2699,2.2727,2.2732,2.2751,2.2714,2.2799,2.2802,2.2804,2.2834,2.284,2.2845,0,0,0,0,0,2.2653,2.2683,2.2676,2.268,2.2702,2.2723,2.2726,2.2719,2.2703,2.2717,2.2717,2.2704,2.2747,2.273,2.2735,2.2755,2.2798,2.2801,2.2804,2.2832,2.2839,2.2845,0,0,0,0,0,0,2.2681,2.2684,2.2675,2.2708,2.2715,2.2719,2.2736,2.2726,2.2738,2.2735,2.2726,2.2727,2.2756,2.2758,2.274,2.2791,2.277,2.2774,2.2789,2.2796,2.2801,2.28,2.2716,0,0,0,0,0,2.2691,2.2707,2.2709,2.2737,2.2742,2.2738,2.2747,2.2741,2.2749,2.2752,2.2753,2.2761,2.2776,2.2786,2.28,2.2834,2.2835,2.2851,2.2856,2.286,2.2864,2.2883,2.289,2.2816,2.2816,2.2816,0,0,2.2711,2.2715,2.2726,2.2743,2.2748,2.2766,2.2741,2.2761,2.2774,2.2754,2.278,2.2782,2.2789,2.282,2.2834,2.2823,2.2885,2.2864,2.2868,2.2869,2.2887,2.2894,2.29,2.2818,2.2818,2.2817,0,0,2.2757,2.2762,2.2786,2.2792,2.28,2.2797,2.2803,2.2808,2.2809,2.2834,2.282,2.2835,2.2861,2.2867,2.2874,2.2922,2.2911,2.2927,2.2955,2.2973,2.2979,2.2984,2.3001,2.3008,2.2931,2.2931,2.2931,0,2.2782,2.2808,2.28,2.282,2.2828,2.2812,2.2836,2.2842,2.2854,2.286,2.2848,2.288,2.2884,2.2916,2.2928,2.2934,2.294,2.2926,2.2979,2.2984,2.2988,2.3005,2.3011,2.2933,2.2933,2.2932,2.2932,0,2.2837,2.2856,2.2874,2.2886,2.2896,2.2919,2.2914,2.2925,2.2919,2.2918,2.2944,2.2948,2.2962,2.2969,2.2963,2.3001,2.2994,2.298,2.2958,2.2997,2.3013,2.3019,2.2936,2.2935,2.2934,2.2934,0,0,2.2901,2.2909,2.2916,2.2921,2.2929,2.2943,2.2965,2.2979,2.2988,2.2997,2.3015,2.3037,2.3025,2.3032,2.3026,2.3042,2.3081,2.3027,2.3027,2.3037,2.3123,2.3133,2.314,2.3073,2.3074,2.3075,2.3122,0,2.2947,2.2985,2.2978,2.3015,2.3032,2.3016,2.3035,2.3042,2.3041,2.3055,2.3055,2.3071,2.3053,2.3058,2.3073,2.3073,2.3098,2.3069,2.309,2.309,2.3088,2.3148,2.3159,2.3203,2.3128,2.3129,2.313,0,2.3006,2.3017,2.3056,2.3061,2.3067,2.3085,2.3097,2.3111,2.3118,2.3116,2.3125,2.3116,2.3137,2.3115,2.3144,2.3125,2.3133,2.3134,2.3136,2.3137,2.3112,2.3152,2.3217,2.3224,2.3139,2.3138,2.3138,0,2.3049,2.3074,2.31,2.3105,2.3111,2.3124,2.3127,2.3133,2.3142,2.3153,2.3159,2.3172,2.3179,2.3189,2.3184,2.3168,2.3215,2.3192,2.3214,2.3214,2.3224,2.3224,2.3292,2.3229,2.3229,2.3229,2.3229,0,2.3101,2.3125,2.3119,2.3135,2.3161,2.3154,2.318,2.3181,2.3187,2.3203,2.319,2.3206,2.3198,2.3212,2.3208,2.3233,2.3237,2.3236,2.3235,2.3237,2.3237,2.3242,2.3239,2.3231,2.3231,2.323,2.323,0,2.3153,2.315,2.3178,2.3182,2.3183,2.3203,2.3206,2.3221,2.322,2.324,2.3244,2.3242,2.3259,2.3255,2.3273,2.327,2.3302,2.3296,2.3299,2.3298,2.3321,2.3319,2.3394,2.3404,2.3335,2.3336,2.3336,0,2.3187,2.3205,2.3211,2.3221,2.3225,2.3241,2.325,2.3243,2.3253,2.3263,2.3277,2.3292,2.3304,2.3332,2.3332,2.3345,2.334,2.3366,2.3342,2.3344,2.3341,2.334,2.3342,2.3371,2.3372,2.3372,2.3373,0,2.3246,2.3244,2.3258,2.3271,2.3282,2.3292,2.3301,2.331,2.3304,2.3316,2.3333,2.3342,2.3361,2.3376,2.3389,2.3392,2.3382,2.338,2.3386,2.3389,2.339,2.339,2.3312,2.3378,2.3378,2.3377,2.3377,2.3377,2.329,2.3306,2.3312,2.3328,2.3334,2.3343,2.3357,2.3358,2.3372,2.3386,2.3381,2.3401,2.3408,2.3424,2.3428,2.3443,2.3434,2.3442,2.3444,2.3447,2.3449,2.3387,2.3446,2.3445,2.3445,2.3445,2.3445,0,2.3349,2.3353,2.3367,2.338,2.3393,2.3382,2.3391,2.3402,2.342,2.3427,2.3439,2.3459,2.3474,2.3475,2.3489,2.3501,2.3496,2.3505,2.3504,2.3505,2.3457,2.3451,2.3508,2.3508,2.3508,2.3508,2.3508,2.3508,2.3381,2.3407,2.3405,2.3434,2.3437,2.3456,2.3462,2.347,2.3476,2.3499,2.3511,2.3512,2.3517,2.3531,2.3545,2.3545,2.3551,2.3561,2.3559,2.3514,2.3508,2.3502,2.3496,2.3562,2.3562,2.3605,2.3606,2.3606]}]]